Zurück zum Katalog

STARLINK-37175

AktivKommunikationSSO
NORAD 68401·PAYLOAD·🇺🇸 United States

Gestartet Mar 26, 2026 von Vandenberg Space Force Base

Loading…

Nächste Überflüge (nächste 24 Stunden)

TLE

AktuellSource: CelesTrak SupGP

Epoche: Sep 15, 2026, 02:44 UTC

1 68401C 26063X   26258.11437500 -.00018324  00000+0 -56870-3 0  2586
2 68401  97.2862  39.0143 0001217  88.5666 172.4737 15.33455374    17

Verfolge STARLINK-37175 in Echtzeit mit AllMySat

Download on the App Store